Location: Gwatt
(46.7204°N, 7.6223°E)
Time: 04:00:12
(UTC+00:00)

S-56A Canister/Altair - Pass Details

Date: 27 January 2021
Orbit: 631 x 2501 km, 38.9° (Epoch: 05 March)

Event Time Altitude Azimuth Distance (km) Brightness Sun altitude
Exits shadow 03:38:09 17° 132° (SE) 1,714 9.6 -34.4°
Drops below altitude 10° 03:39:35 10° 122° (ESE) 2,210 10.4 -34.2°
Sets 03:42:27 0° 112° (ESE) 3,312 11.6 -33.7°
